This is the latest recevied weather packets stored in our database for station/object W2OBX. If no packets are shown the sender has not sent any weather packets the latest 10 day(s).
| Time | Temp. | Humidity | Pressure | Rain* | Wind** | Luminosity | Snow |
|---|---|---|---|---|---|---|---|
| 1777209215 | 15° C | 99% | 1015.4 hPa | 0 mm | - | 18 W/m² | - |
| 1777208913 | 15° C | 99% | 1015.5 hPa | 0 mm | - | 20 W/m² | - |
| 1777208609 | 15° C | 99% | 1015.6 hPa | 0 mm | - | 19 W/m² | - |
| 1777208305 | 15° C | 99% | 1015.5 hPa | 0 mm | - | 16 W/m² | - |
| 1777208001 | 15° C | 99% | 1015.5 hPa | 0 mm | - | 20 W/m² | - |
| 1777207697 | 15° C | 99% | 1015.4 hPa | 0 mm | - | 12 W/m² | - |
| 1777207392 | 15° C | 99% | 1015.4 hPa | 0 mm | - | 13 W/m² | - |
| 1777207086 | 15° C | 99% | 1015.3 hPa | 0 mm | - | 11 W/m² | - |
| 1777206783 | 15° C | 99% | 1015 hPa | 0 mm | - | 10 W/m² | - |
| 1777206482 | 15° C | 99% | 1015.1 hPa | 0 mm | - | 12 W/m² | - |
| 1777206177 | 15° C | 99% | 1014.9 hPa | 0 mm | - | 11 W/m² | - |
| 1777205874 | 15° C | 99% | 1014.9 hPa | 0 mm | - | 14 W/m² | - |
| 1777205570 | 15° C | 99% | 1014.8 hPa | 0 mm | - | 11 W/m² | - |
| 1777205267 | 15° C | 99% | 1014.6 hPa | 0 mm | - | 7 W/m² | - |
| 1777204962 | 15° C | 99% | 1014.7 hPa | 0 mm | - | 7 W/m² | - |
| 1777204658 | 15° C | 99% | 1014.6 hPa | 0 mm | - | 8 W/m² | - |
| 1777204353 | 15° C | 99% | 1014.4 hPa | 0 mm | - | 6 W/m² | - |
| 1777204051 | 15° C | 99% | 1014.5 hPa | 0 mm | - | 5 W/m² | - |
| 1777203751 | 15° C | 99% | 1014.4 hPa | 0 mm | - | 4 W/m² | - |
| 1777203446 | 15° C | 99% | 1014.4 hPa | 0 mm | - | 4 W/m² | - |
| 1777203142 | 15° C | 99% | 1014.4 hPa | 0 mm | - | 3 W/m² | - |
| 1777202839 | 15° C | 99% | 1014.1 hPa | 0 mm | - | 4 W/m² | - |
| 1777202537 | 15° C | 99% | 1014.1 hPa | 0 mm | - | 3 W/m² | - |
| 1777202232 | 15° C | 99% | 1014 hPa | 0 mm | - | 3 W/m² | - |
| 1777201929 | 15° C | 99% | 1013.8 hPa | 0 mm | - | 2 W/m² | - |
* Rain latest hour (hover to see other rain measurements)
** Current wind speed in m/s (hover to see current wind gust speed)